Starlink 32878

operational
NORAD ID: 62892 Int'l Des: 2025-024 Owner: SPXS Country: US Constellation: starlink
LEOCIRCULAR

关于 Starlink 32878

正在加载描述...

实时位置

正在加载3D地球...

即将过境

高度历史

Altitude vs Time

uPlot chart will show altitude changes over time

两行轨道根数

1 62892U 25024P 25351.62449121 .00014692 00000-0 54233-3 0 9997
2 62892 43.0024 68.9570 0001506 260.4449 99.6233 15.27581426 49712
Epoch: Dec 17, 2025 • Age: 15 hours

当前状态

高度 493.5 km
速度 7.62 km/s
星下点 -38.61°S, 123.91°E
发射日期 Feb 4, 2025
运行时间 0.8 years
类型 internet

技术详情

分类 Payload
质量 730.00 kg
干质量 700.00 kg
总质量 730.00 kg
长度 0.30 m
直径 4.10 m
跨度 29.00 m
形状 Box + pan
制造商 SPXS
平台类型 Starlink V2M
阶段状态 In Orbit
所有者/国家 SPXS/US

大型星座

Loading constellations...